Theta_e
336 339 342 348 350 349 350 350 350 349 350 349 347 348 347 345 343 343 342 342 347 346 345 346 346 346 346 346 346 346 346 346 346 346 346 346 346 346 346 346 346 345 344 343 345 344 346 346 345 345 344 345 344 345 344 343 345 344 343 343 343 343 343 343 343 343 344 340 340 340 340 340 340 341 341 340 340 338 337 336 337 333 331 334 336
335 340 342 346 350 350 350 350 350 349 351 348 347 347 347 346 343 341 341 341 345 347 347 346 346 347 346 346 346 346 346 346 346 346 346 345 345 346 346 346 345 345 343 341 345 345 346 346 345 345 344 344 344 344 344 344 343 342 342 342 342 343 343 344 345 344 343 342 342 342 341 341 340 339 341 340 339 338 337 336 336 331 327 336 337
338 341 343 347 349 350 350 350 349 349 350 348 347 347 346 346 344 343 341 340 341 344 346 346 345 345 345 345 346 345 345 345 346 346 345 345 345 345 345 345 344 344 342 341 340 344 344 344 344 344 343 343 343 343 342 341 341 341 341 340 341 342 343 344 344 344 344 344 342 341 341 341 341 341 339 337 336 335 334 335 335 335 331 335 334
337 340 344 347 349 349 350 349 349 349 349 348 347 347 346 346 344 344 341 339 340 341 345 346 345 345 345 345 345 345 345 345 345 345 345 345 345 345 344 344 343 342 341 340 338 338 341 342 342 342 342 341 341 341 341 341 341 341 340 339 339 340 342 343 342 342 342 342 341 339 335 330 337 340 341 340 339 339 338 337 336 336 335 334 335
338 341 344 346 346 349 349 349 350 349 349 348 347 347 346 346 345 344 340 339 339 339 342 346 345 345 345 345 345 345 345 343 344 343 344 343 343 343 343 342 341 340 339 338 338 337 339 341 342 342 340 339 339 340 340 340 340 341 340 338 338 340 341 342 342 342 341 341 340 336 328 330 331 338 340 340 339 337 337 335 334 334 335 334 335
338 342 344 345 345 347 349 349 349 349 349 348 347 347 347 346 345 342 341 341 339 339 339 347 346 345 344 344 344 345 344 342 342 342 341 341 341 341 340 340 340 339 338 338 337 336 336 340 340 340 340 339 339 339 339 339 339 338 338 338 338 339 341 341 341 341 341 339 338 328 327 328 331 334 338 339 338 337 337 337 337 336 335 335 335
339 342 344 344 344 346 348 349 349 349 349 348 347 347 347 347 344 342 342 341 341 338 338 339 344 343 343 343 342 341 341 341 340 339 339 339 339 339 339 338 338 337 337 337 335 334 334 341 340 339 339 339 338 339 339 339 338 337 338 338 339 340 341 341 340 340 338 332 325 324 325 328 329 332 340 340 338 337 337 337 337 337 337 335 335
341 342 343 343 344 346 347 349 349 348 349 348 347 347 347 347 345 342 342 341 341 339 337 339 339 343 342 340 341 341 340 340 339 339 340 338 338 337 337 337 336 335 335 335 334 334 334 337 339 340 339 338 338 339 339 338 337 337 339 340 341 340 341 340 339 338 336 325 323 322 327 331 332 332 341 341 340 339 339 338 337 337 336 335 334
340 342 342 343 343 346 346 347 349 348 347 349 348 348 348 346 344 343 341 341 340 339 338 338 338 338 338 338 339 340 339 338 337 338 338 337 336 335 335 334 334 333 333 335 333 333 333 333 336 338 338 338 338 338 338 337 337 337 339 341 341 340 340 339 338 336 330 324 322 323 325 329 329 330 339 340 339 337 338 339 338 336 334 332 332
340 341 341 342 343 345 345 347 348 348 348 349 348 348 347 346 344 343 341 340 339 339 339 339 338 337 337 336 335 337 337 337 337 339 337 336 334 335 334 332 333 333 333 333 334 333 334 334 334 336 338 337 337 337 338 337 336 336 337 339 340 340 339 338 336 333 322 322 322 322 327 337 325 327 336 337 338 338 338 336 336 335 334 333 334
339 340 341 341 342 344 345 347 348 348 348 348 349 348 347 345 344 343 343 342 340 339 339 339 338 337 336 336 336 336 336 336 337 339 336 335 335 335 332 332 334 334 334 333 334 333 334 335 335 336 336 337 337 337 337 337 336 335 335 336 337 337 337 336 332 321 321 322 323 326 334 337 323 325 337 337 336 336 335 334 334 334 334 335 334
339 339 340 341 344 343 345 346 347 348 347 348 348 347 347 346 344 344 343 341 340 339 339 338 338 337 336 336 336 336 335 336 337 337 335 335 335 334 332 334 334 334 334 333 334 334 334 334 335 335 335 336 336 337 337 337 336 335 334 334 334 333 333 331 324 321 319 321 323 324 324 324 323 329 336 336 336 336 336 337 337 336 336 335 334
338 339 340 341 342 343 344 345 346 346 347 347 348 347 346 346 345 344 342 341 340 339 338 337 337 337 337 337 336 336 335 335 336 335 335 335 335 334 333 334 334 333 334 334 333 334 334 334 334 334 335 335 335 336 337 337 336 335 334 333 332 331 329 327 317 318 318 318 322 322 323 322 321 339 335 335 337 338 338 337 337 336 336 335 333
338 339 339 341 342 344 342 343 344 345 346 347 347 347 346 346 345 343 342 341 339 338 337 337 338 336 337 337 336 336 335 335 334 335 335 335 335 334 333 332 333 334 333 334 332 334 334 334 334 334 334 335 334 335 336 336 336 336 334 333 331 329 326 324 323 315 318 320 323 321 318 325 321 340 336 337 336 336 336 337 337 337 337 335 335
338 339 339 341 343 343 344 342 343 343 345 345 346 346 346 346 345 343 342 341 340 339 338 336 337 337 337 337 336 335 334 335 336 338 338 338 335 335 334 332 333 333 334 334 334 334 334 334 333 334 333 334 334 334 335 335 336 335 334 332 330 327 324 314 315 311 314 320 320 325 321 320 336 339 337 337 337 335 335 335 337 336 337 335 334
339 339 339 340 343 343 343 343 341 341 342 343 343 344 346 346 345 344 343 342 340 339 338 336 337 337 337 339 336 335 335 335 336 338 336 338 338 335 335 333 334 334 334 333 333 334 334 332 333 333 332 332 333 333 333 334 335 335 334 332 330 327 324 319 310 309 309 311 314 321 320 321 338 338 336 337 337 336 335 335 335 335 336 335 335
339 339 339 340 342 343 343 343 341 339 339 340 341 342 344 345 344 344 343 343 341 340 338 337 337 338 339 341 338 336 338 338 338 337 337 338 339 337 337 334 334 334 333 332 332 333 332 332 333 332 332 332 332 332 332 333 334 335 334 331 330 327 324 319 310 310 309 315 315 311 311 318 330 340 336 335 336 335 336 336 334 334 335 335 336
338 340 340 341 342 343 343 343 341 341 341 339 338 339 341 343 342 342 342 342 341 340 338 339 339 338 339 339 338 337 337 338 336 336 336 336 335 333 333 335 334 334 334 334 331 332 332 331 332 332 331 331 331 332 332 331 331 334 333 331 328 326 324 320 307 309 310 321 306 314 313 326 335 339 340 334 334 335 336 336 335 334 334 334 335
338 339 340 341 342 343 343 343 341 341 341 340 339 339 338 340 340 340 340 339 340 338 337 336 336 338 337 337 337 337 336 336 334 335 334 335 334 331 331 333 334 333 334 333 334 333 333 332 332 331 330 331 331 331 331 331 331 333 332 329 326 323 322 316 308 306 309 310 309 310 309 327 330 335 336 335 336 335 336 335 335 334 334 334 335
337 338 339 341 342 342 342 342 341 341 340 339 338 338 336 335 336 337 337 337 337 336 334 333 333 333 332 333 334 333 334 333 333 331 331 334 334 327 329 332 335 333 333 333 334 333 333 333 332 333 332 331 332 331 332 332 333 333 331 328 325 322 309 305 307 307 308 308 315 309 321 328 330 332 334 335 335 336 335 336 336 335 334 334 334
335 337 338 340 341 341 341 340 340 339 339 338 337 336 335 333 333 334 334 334 334 334 332 330 329 328 328 327 331 332 330 329 329 325 329 326 325 325 327 331 334 336 335 335 335 336 333 333 332 332 333 333 333 333 332 332 333 332 330 326 324 313 309 308 305 309 309 310 312 308 322 325 329 330 332 335 336 336 336 335 335 335 335 335 334
332 334 337 339 339 340 340 340 339 338 337 336 336 335 334 333 332 333 334 332 332 331 331 329 334 330 325 326 328 330 328 326 325 329 324 324 324 324 326 330 331 332 335 336 335 336 335 332 333 332 333 334 333 326 323 329 330 330 327 324 320 315 313 311 308 307 309 309 311 313 322 325 329 330 331 333 334 336 336 335 335 335 335 335 335
331 333 335 338 339 339 339 339 338 337 336 335 334 334 333 332 331 332 332 331 333 332 330 331 329 329 328 326 325 325 325 325 325 326 324 323 324 323 325 328 330 330 332 334 334 336 335 333 333 334 334 333 325 318 315 313 314 321 322 317 318 319 318 316 314 312 311 308 309 319 323 327 330 331 330 331 334 335 336 335 335 335 335 334 334
331 332 334 337 338 338 338 339 338 337 336 334 333 333 332 332 331 331 331 331 331 331 330 331 330 328 328 326 325 324 324 324 330 331 331 325 323 322 323 325 327 328 328 330 331 333 334 333 333 333 333 328 321 316 315 317 317 318 318 320 321 321 320 320 318 318 317 315 314 321 324 328 330 332 332 330 331 334 335 336 335 335 335 335 334
332 333 333 335 337 338 338 338 338 337 336 334 334 333 333 333 332 330 331 333 332 331 330 330 330 329 327 327 326 324 324 324 324 325 325 323 321 320 320 321 321 321 324 319 319 319 324 320 320 323 321 322 321 321 317 318 320 320 320 321 322 322 322 322 322 321 321 320 319 321 322 326 330 333 334 333 331 332 334 334 335 335 335 334 334
331 331 332 334 336 337 337 337 337 337 336 336 335 335 335 335 334 333 331 333 333 333 332 331 330 329 328 327 326 325 324 323 322 324 324 323 321 320 319 318 317 319 318 318 316 316 316 317 317 319 317 314 319 320 320 321 321 320 321 321 321 322 323 323 323 322 321 321 320 320 321 323 325 330 334 334 332 332 334 334 335 335 335 335 335
329 330 332 333 335 336 337 337 336 336 336 336 335 334 334 335 335 334 332 332 334 333 334 333 333 331 330 328 327 326 324 323 322 322 323 323 322 320 320 319 319 319 318 319 318 317 317 316 316 317 316 315 314 314 316 319 320 320 320 321 321 322 322 322 322 322 321 321 321 320 321 323 326 329 332 334 334 332 332 333 333 334 336 336 335
329 329 331 332 333 335 336 335 334 335 335 335 334 334 334 334 334 333 333 332 332 333 334 334 335 334 333 331 328 328 327 324 322 322 322 321 322 322 321 320 319 319 319 320 320 317 317 316 316 314 316 316 316 316 315 315 316 316 317 318 319 321 321 321 322 322 321 321 321 320 320 321 323 326 329 333 334 333 331 331 333 334 335 335 335
327 328 329 330 332 334 334 334 333 334 334 334 333 333 334 333 333 332 332 330 332 333 334 335 334 334 335 334 330 329 329 327 324 322 321 321 321 321 321 321 319 320 320 319 319 319 318 318 319 319 317 316 315 316 315 315 313 314 315 315 315 317 319 320 321 322 321 321 321 320 320 320 321 324 328 332 334 333 333 333 333 334 335 335 335
329 328 328 329 331 333 333 333 333 333 334 334 333 333 334 333 332 331 332 330 332 333 333 334 335 335 335 335 334 332 331 329 327 323 321 321 321 320 320 320 320 319 319 319 319 321 322 322 321 320 318 317 316 317 316 316 316 315 314 315 315 316 317 317 318 319 320 321 320 320 319 319 320 323 326 329 332 333 333 333 334 334 334 335 335
331 329 328 328 329 331 331 332 332 331 333 333 333 333 334 333 333 331 331 331 331 332 332 333 334 334 334 335 335 333 332 331 330 328 325 322 320 320 321 320 320 319 320 321 320 322 323 323 322 321 319 318 318 317 315 316 315 315 314 315 316 315 315 315 315 316 316 317 317 317 316 318 319 321 324 328 330 332 333 333 333 334 334 335 335
331 331 331 329 327 328 330 331 331 331 331 332 332 333 333 333 333 333 331 331 330 331 332 332 331 333 334 334 334 334 332 331 330 330 328 327 325 323 321 320 321 320 322 323 323 322 322 322 322 321 319 317 316 315 314 314 315 315 314 315 315 315 315 315 315 315 315 315 315 315 315 315 317 319 321 325 328 330 331 332 333 333 334 335 335
333 334 334 332 329 327 328 329 330 329 330 331 332 333 334 334 333 333 333 332 330 330 330 331 331 332 333 333 333 334 332 331 331 330 328 328 328 327 325 324 323 321 321 322 324 323 322 320 318 318 318 316 314 315 312 313 314 315 314 314 315 315 315 315 315 315 315 315 315 315 315 315 314 317 319 320 322 325 328 330 331 332 333 334 335
332 333 334 333 333 331 329 329 329 329 328 330 331 332 333 334 334 334 333 332 331 329 329 329 330 330 331 332 332 332 332 332 331 330 329 328 328 328 327 326 326 324 322 321 321 321 320 319 318 317 316 316 317 317 315 315 314 314 313 314 314 315 315 315 315 316 315 315 315 315 315 315 314 314 314 317 318 321 324 327 329 330 331 332 333
330 332 333 334 334 334 331 329 328 329 328 329 329 330 331 332 334 334 334 333 332 331 330 330 329 329 329 330 330 330 330 332 332 331 329 328 327 327 327 327 327 325 323 321 321 320 320 319 318 318 318 317 317 317 316 316 315 314 314 314 314 315 314 314 315 314 314 315 315 315 315 315 315 315 315 315 316 318 321 324 326 328 329 330 331
329 331 332 333 334 335 334 332 330 329 329 329 329 330 330 331 333 332 334 334 333 332 331 331 330 330 329 329 329 329 329 330 331 330 329 329 328 327 327 327 325 324 323 322 321 322 321 321 320 320 319 319 318 317 316 315 314 314 314 314 314 314 314 314 314 314 315 314 314 315 315 315 315 316 314 315 315 315 319 321 323 326 327 328 329
329 330 330 331 333 334 334 335 334 331 331 330 330 330 331 332 333 334 334 334 333 333 333 332 331 330 330 329 329 328 328 328 329 330 329 328 327 327 327 325 323 322 322 322 322 322 321 320 321 320 320 320 318 316 313 313 314 314 314 313 314 314 313 314 315 315 315 314 315 315 315 315 315 313 315 315 315 315 316 317 320 323 324 324 325
329 329 330 331 332 333 334 334 336 335 335 334 332 332 333 334 334 335 333 335 334 334 334 333 332 331 331 330 330 328 327 327 328 328 328 328 327 326 325 323 322 322 322 321 321 320 320 320 320 318 317 318 317 315 314 314 313 313 313 313 313 313 314 314 315 313 314 315 315 316 316 316 316 315 315 315 315 315 315 316 318 319 320 320 322
328 328 329 329 331 332 332 332 333 335 335 336 335 335 336 336 336 336 335 335 335 335 335 334 333 333 332 331 330 329 326 326 326 326 326 326 325 324 323 322 321 322 321 321 321 320 319 319 319 318 315 316 318 317 316 315 314 313 313 313 313 313 314 314 314 315 315 315 316 316 316 316 316 315 315 315 315 314 314 314 314 314 315 316 319
328 328 327 328 329 330 331 331 331 334 335 335 335 334 335 333 333 334 334 333 335 334 335 334 334 334 333 332 331 330 328 326 325 325 325 325 324 323 322 321 320 321 320 320 320 320 320 319 318 318 316 314 313 315 311 311 310 311 311 313 313 314 314 314 314 315 315 315 316 316 316 316 315 315 315 315 315 314 314 314 312 313 314 314 316
326 327 327 327 328 329 329 329 330 332 333 333 333 333 332 332 333 332 331 333 333 334 334 334 334 334 334 333 332 331 330 328 326 325 325 323 324 324 322 320 320 320 320 320 320 320 320 320 319 316 316 315 314 312 311 311 311 314 314 313 314 314 314 314 315 315 315 315 316 315 315 314 314 314 315 314 314 314 314 313 313 313 313 313 314
324 326 326 327 327 328 328 329 330 330 331 332 332 332 333 333 332 332 333 333 333 332 332 333 334 334 334 334 333 333 332 330 327 327 326 326 325 324 323 322 320 320 320 320 319 317 317 317 316 315 313 316 315 313 312 313 308 311 312 312 314 316 316 314 314 314 314 314 315 314 314 313 314 314 314 313 313 313 313 313 313 313 313 313 313
325 325 326 326 326 326 327 328 329 329 330 331 332 331 333 334 334 333 333 333 335 335 334 334 334 334 334 334 334 334 333 332 331 327 327 327 326 326 325 324 321 320 319 319 318 317 317 317 317 317 313 309 313 311 312 317 313 304 309 312 310 306 306 303 300 304 310 312 311 311 312 312 313 313 311 311 312 312 312 312 311 311 312 312 312
325 325 325 325 326 326 327 327 328 329 330 330 329 332 332 332 333 333 333 333 332 332 333 333 333 332 332 333 333 333 333 333 332 330 328 328 327 327 327 325 323 322 321 320 318 318 317 317 317 316 317 315 310 312 313 315 317 314 311 311 306 303 306 302 299 310 307 305 307 309 308 311 311 309 308 311 311 311 311 311 311 311 311 312 312
325 325 326 326 326 326 327 327 328 329 329 329 329 330 329 327 329 325 324 325 324 327 328 329 330 330 331 332 332 333 333 333 333 332 329 329 329 328 327 327 325 323 322 321 320 319 318 318 317 317 316 317 316 311 309 313 315 318 316 306 303 301 303 301 307 311 298 306 303 305 306 306 307 307 307 309 309 310 310 308 310 310 311 311 311
324 326 327 327 327 327 327 327 328 328 329 329 329 329 327 328 327 326 324 326 326 326 325 326 328 328 329 331 332 332 332 332 332 332 331 328 329 328 328 327 326 325 322 322 321 321 320 319 318 318 317 317 318 316 312 308 314 316 319 319 316 310 303 298 310 307 307 311 314 307 304 305 304 306 305 307 308 309 308 309 308 310 310 310 311
323 326 327 327 327 327 327 327 327 328 329 328 329 327 327 327 327 327 327 326 325 326 328 329 328 329 329 328 330 330 330 330 330 331 331 330 329 329 328 328 327 326 324 323 322 322 322 320 319 318 319 317 316 316 316 312 310 314 317 319 319 318 313 312 310 308 309 306 304 307 312 307 306 306 305 307 307 307 309 308 308 309 309 310 310
323 325 325 326 327 327 327 327 328 327 329 329 328 327 327 327 326 326 326 326 326 326 327 327 326 325 324 326 326 326 326 327 328 329 330 330 328 329 328 327 326 326 324 323 323 323 322 321 319 319 319 318 317 317 316 314 314 312 313 315 316 317 317 314 315 313 311 308 311 313 312 311 306 305 305 307 308 309 309 307 309 309 309 310 310
323 323 324 326 327 327 327 327 327 327 328 328 327 327 327 327 326 326 325 325 326 326 326 322 323 322 321 321 322 323 323 323 325 326 326 328 326 327 327 327 326 326 323 324 323 322 321 321 318 318 318 318 318 318 317 317 315 316 308 311 313 314 314 314 314 312 311 310 310 312 312 306 306 306 307 307 309 309 309 310 310 310 310 310 310
322 323 324 325 326 326 326 325 326 327 328 327 327 327 326 326 326 325 324 325 325 325 325 321 320 321 322 321 321 321 321 321 322 323 324 325 325 324 325 325 325 325 322 323 322 321 321 321 321 320 319 318 318 318 317 318 316 316 315 313 311 310 311 311 312 312 312 313 309 310 312 311 309 311 310 306 307 309 309 310 309 309 310 311 311
318 322 323 324 325 325 326 325 326 327 327 327 327 327 327 326 326 326 325 324 325 324 323 322 319 318 320 321 321 321 320 320 320 321 322 323 324 323 323 324 324 323 321 321 322 322 321 321 321 320 319 319 318 318 316 317 318 318 317 316 315 314 313 311 311 311 312 310 309 310 312 312 311 312 314 311 312 313 312 310 310 310 310 311 312
Wind_Speed
8 12 11 17 17 18 19 20 19 19 19 18 17 17 16 15 14 14 12 12 16 14 13 13 13 11 11 12 12 12 12 12 13 12 12 14 13 13 13 13 12 9 11 13 14 14 14 13 14 14 13 15 15 15 15 14 15 14 14 13 14 13 13 13 13 12 12 14 14 14 13 13 14 14 14 15 15 14 11 12 9 5 4 9 14
15 12 11 13 18 17 20 20 20 20 20 19 18 17 17 16 15 15 13 10 14 15 15 14 14 12 12 13 13 13 14 14 14 14 13 14 14 15 14 14 12 11 12 10 16 13 14 14 13 14 13 13 13 15 14 14 15 14 13 13 12 11 12 13 12 9 12 14 14 14 13 13 13 13 14 14 14 14 11 12 11 4 3 11 11
13 13 11 12 17 17 20 21 20 19 20 19 18 18 17 16 16 15 14 12 9 14 16 16 14 14 14 15 15 14 15 15 14 14 14 14 14 14 14 14 13 13 12 11 9 14 14 12 12 13 13 14 13 14 14 14 13 13 13 11 10 11 12 12 12 12 13 13 13 13 13 13 12 13 14 14 14 13 11 12 12 9 6 10 7
14 12 11 13 17 17 18 20 20 19 20 19 19 18 17 16 16 16 15 13 11 10 15 17 15 15 14 14 14 14 15 16 15 14 14 13 13 13 13 13 12 12 11 9 8 8 11 11 12 12 11 12 13 13 13 13 13 12 10 9 8 9 10 11 12 12 11 11 10 8 4 4 7 12 12 12 13 12 9 11 11 11 12 11 11
12 11 11 11 12 15 17 19 20 20 20 20 19 18 17 17 16 15 15 14 11 10 12 18 16 14 14 14 14 15 13 14 14 13 13 13 12 11 11 11 11 10 9 9 7 7 10 10 11 12 12 12 13 13 13 12 11 10 9 8 7 8 10 10 11 11 10 9 8 6 4 4 4 9 11 12 11 10 10 11 11 11 11 11 10
13 11 10 10 10 12 18 18 20 21 20 20 19 19 18 17 16 15 15 15 13 11 8 17 18 15 14 13 14 14 13 13 13 11 10 10 10 9 9 9 9 9 9 8 7 6 7 11 11 11 12 12 12 12 11 11 10 9 8 7 6 8 9 9 9 9 8 8 7 4 3 3 3 5 13 12 11 8 10 9 10 10 10 9 9
13 10 10 10 9 11 17 17 19 20 21 20 19 19 18 18 16 15 15 15 14 12 10 8 14 15 12 13 11 9 8 12 13 11 9 9 8 8 7 6 7 7 8 8 8 7 8 13 11 11 12 11 11 11 11 10 10 8 7 7 8 9 9 8 8 8 7 5 3 3 3 3 2 1 12 11 10 9 9 9 9 9 9 9 8
10 9 9 9 8 12 16 18 18 19 20 20 19 19 18 18 16 15 15 15 14 13 11 10 8 15 15 12 11 11 9 7 10 10 13 10 9 7 7 7 6 7 7 8 8 8 8 10 12 11 11 11 10 10 10 9 9 9 8 8 9 10 9 8 7 6 7 3 3 3 3 3 3 1 10 11 11 10 9 9 9 9 9 8 6
11 9 9 8 8 15 15 17 18 20 19 20 19 19 19 19 16 15 14 14 14 13 13 11 10 8 6 12 14 13 10 8 9 10 9 9 8 7 6 5 7 7 6 8 8 8 9 7 10 11 11 10 9 9 9 10 9 10 9 9 9 11 9 8 7 6 4 2 2 2 2 2 2 0 7 10 9 9 9 7 8 9 9 8 7
10 9 8 7 8 14 15 16 18 19 19 19 19 19 19 18 17 16 15 14 14 14 14 14 12 11 11 9 5 11 11 10 10 12 9 8 7 7 6 5 6 6 6 9 9 9 9 9 9 9 11 9 9 8 9 9 9 10 10 10 9 9 8 7 7 5 2 2 1 1 1 3 1 0 4 7 8 9 9 7 5 4 4 7 7
10 9 8 8 9 14 15 16 18 19 20 20 19 19 18 18 17 16 15 14 14 14 13 14 13 13 12 11 12 11 10 10 11 11 9 8 9 8 8 6 9 9 7 9 9 9 9 9 8 9 10 9 7 7 8 9 9 10 11 10 9 8 7 7 5 2 2 1 1 0 1 4 2 1 7 7 8 9 8 7 6 6 6 6 6
10 9 8 7 11 14 15 16 17 18 20 19 19 19 18 17 16 16 15 14 13 13 12 12 13 13 13 13 13 13 12 11 11 11 10 9 8 9 8 9 9 10 10 9 10 10 9 9 8 8 9 8 6 7 7 8 9 9 10 10 10 8 7 6 4 3 2 1 1 1 2 2 1 1 6 6 7 8 7 7 7 7 5 5 5
11 9 8 8 9 13 14 16 16 16 16 17 18 18 18 17 16 16 15 14 13 12 12 12 12 13 14 14 13 13 13 10 8 10 10 11 9 9 9 9 9 9 10 10 9 9 9 9 8 7 8 7 5 6 7 7 8 9 9 9 8 8 7 6 3 3 2 2 1 1 1 1 1 2 5 5 5 6 6 6 7 7 7 5 4
11 10 8 9 8 13 14 15 15 16 15 15 17 17 18 18 16 15 15 14 13 12 12 13 13 12 13 12 12 11 11 11 8 9 10 11 10 10 9 8 9 10 9 10 9 8 8 9 9 8 8 7 5 5 6 6 7 8 8 8 8 7 7 5 4 2 1 1 1 0 0 1 2 5 4 5 5 5 4 4 4 4 5 6 5
11 11 9 8 9 10 14 14 15 15 15 15 15 16 17 18 17 16 15 14 13 13 12 10 12 13 12 12 12 11 11 11 7 8 7 8 9 10 10 8 9 8 9 9 10 8 7 8 9 8 8 8 5 4 4 5 5 6 8 8 7 6 6 3 3 2 2 0 1 1 1 1 5 4 3 3 4 2 3 3 3 3 4 3 4
10 10 8 8 9 9 9 12 14 14 14 13 14 15 16 16 16 15 15 14 13 12 11 10 11 12 12 9 13 12 13 11 8 4 8 5 7 10 10 10 9 9 8 8 8 9 9 7 8 7 6 7 5 3 3 3 4 5 6 7 7 5 4 4 3 3 2 1 1 1 2 2 6 4 3 4 4 4 3 4 4 4 5 4 4
9 9 9 9 10 9 9 9 10 14 13 13 13 14 14 15 14 14 13 12 12 11 11 12 11 10 10 9 12 11 10 13 10 5 3 4 4 6 5 10 10 9 8 8 8 7 7 6 6 7 6 6 6 4 2 3 3 4 4 4 6 6 4 3 2 1 2 2 2 2 2 2 5 7 6 5 5 5 5 6 6 5 5 6 6
9 10 10 10 10 9 8 9 9 9 8 11 13 13 13 13 13 12 12 11 11 12 11 9 11 10 7 8 9 10 6 9 8 6 4 2 4 4 3 1 9 10 10 9 9 7 8 7 6 7 7 6 6 4 3 3 1 3 3 3 3 4 5 4 2 0 1 1 2 2 3 5 7 7 9 6 6 7 7 7 7 7 6 6 7
8 9 9 10 10 9 9 9 9 8 9 8 7 10 14 13 12 11 10 11 10 11 11 8 5 8 7 6 8 8 7 9 8 6 4 3 5 5 2 1 6 8 10 11 10 10 10 9 8 8 7 7 6 6 5 4 3 2 2 1 1 2 3 3 1 0 0 1 3 3 3 6 7 8 8 8 9 9 9 9 9 8 8 8 8
7 9 9 9 9 9 8 8 8 9 8 7 8 8 10 13 12 12 11 10 10 10 11 8 6 7 9 7 6 9 7 7 10 6 6 5 6 6 4 3 4 10 9 9 9 9 10 9 9 9 8 7 7 7 6 5 3 3 3 2 2 0 1 1 1 0 0 1 1 2 5 8 8 8 9 10 10 10 10 11 11 11 10 10 10
6 8 8 8 9 9 9 7 8 9 9 9 8 8 8 11 10 12 12 11 10 11 11 10 7 7 8 7 6 5 6 4 6 5 5 4 6 8 7 5 5 6 8 7 8 7 9 8 8 8 9 8 6 6 4 4 3 4 4 4 3 1 1 2 2 2 1 1 1 3 6 8 9 10 10 11 12 12 12 12 12 11 12 12 11
8 8 8 8 9 8 9 9 8 9 9 8 7 7 6 8 7 7 7 8 9 10 8 6 6 4 8 7 5 5 6 5 4 6 5 4 6 9 8 8 7 6 4 4 6 6 7 10 9 9 9 9 7 5 5 5 5 5 5 5 1 1 2 2 3 3 3 3 2 3 7 8 10 11 12 12 12 13 13 12 13 13 12 12 13
9 8 8 9 9 8 9 9 9 9 9 8 7 7 7 6 7 7 7 8 7 7 6 6 4 5 5 5 5 4 5 5 5 5 5 7 6 9 9 9 9 8 7 5 4 7 8 9 8 8 8 6 0 1 2 2 2 3 4 2 1 2 2 3 2 3 4 3 3 6 8 9 10 12 13 13 13 13 13 13 13 13 13 13 13
10 9 9 7 9 8 10 10 10 10 9 7 6 6 6 6 6 6 6 6 7 7 7 7 6 5 6 5 5 4 5 4 6 9 8 5 6 8 9 9 9 8 8 6 4 4 6 6 5 6 6 3 3 3 2 1 1 2 2 2 3 3 3 3 3 4 4 3 4 9 10 11 12 12 13 14 14 14 14 14 14 14 13 13 14
9 7 7 8 10 9 9 9 10 10 9 8 7 7 6 6 6 6 6 6 6 6 6 6 6 6 6 6 5 5 5 5 4 5 5 5 5 5 5 4 4 4 6 4 3 2 1 1 3 4 2 2 3 5 3 3 2 3 3 3 4 3 4 5 5 5 5 5 6 12 12 12 13 14 14 14 15 14 14 14 14 14 14 14 14
7 8 10 9 10 9 9 8 9 9 10 8 8 7 8 7 7 7 6 6 6 6 6 6 5 6 6 5 6 5 5 5 4 5 5 5 5 5 5 4 3 4 2 3 3 3 3 2 2 3 4 3 3 3 3 4 4 4 4 3 3 4 4 4 4 4 4 5 7 12 13 13 13 15 15 15 15 15 15 14 14 15 15 16 16
9 10 9 8 9 9 9 8 8 8 9 8 7 7 7 7 7 7 8 6 5 5 6 6 6 6 6 6 6 5 5 5 5 4 5 5 5 5 5 4 5 5 3 4 4 3 3 4 3 4 4 3 4 3 3 3 4 4 5 4 5 5 4 4 4 4 4 5 7 12 14 15 14 15 16 16 15 15 16 15 15 15 16 16 16
8 9 9 9 9 11 10 9 8 8 8 8 8 7 7 7 7 7 8 8 8 6 5 7 7 7 7 6 7 6 7 6 5 5 5 4 5 5 5 5 5 5 4 5 5 4 4 3 3 4 4 4 4 5 4 3 4 4 5 5 5 5 5 5 5 5 5 5 6 8 13 15 15 15 16 16 16 15 16 16 16 16 16 17 17
11 11 10 10 11 10 11 10 9 9 8 8 8 7 7 7 7 7 8 8 8 8 8 8 7 7 8 8 7 7 6 6 6 6 5 5 5 5 5 5 5 5 4 4 4 4 4 4 4 5 4 5 4 5 4 5 4 4 5 5 5 5 5 6 6 6 6 5 5 7 11 16 16 15 16 16 16 16 16 16 16 16 17 17 18
12 11 10 10 9 10 11 11 10 9 8 8 8 7 8 8 8 8 8 8 8 7 8 8 7 8 8 8 9 8 8 8 7 6 6 6 6 5 5 5 5 5 5 5 4 5 5 5 5 5 5 5 5 6 5 6 6 5 4 6 5 6 6 6 6 6 6 6 6 7 11 14 16 16 16 16 16 16 17 18 18 18 18 18 19
11 11 10 10 9 10 11 12 11 10 9 9 8 8 7 8 8 8 7 8 7 7 7 6 7 7 7 8 8 9 7 7 7 7 6 6 5 6 6 5 5 5 5 5 4 5 5 5 6 6 6 6 7 5 5 5 5 5 5 5 6 5 6 6 6 6 6 7 6 7 8 12 15 16 16 16 16 16 17 18 18 19 20 20 20
12 12 11 9 9 11 11 12 12 11 10 10 9 9 8 8 7 7 8 7 7 7 7 7 7 6 7 8 8 8 8 8 8 7 7 7 7 7 6 6 6 5 6 6 5 5 6 6 6 5 5 5 5 4 4 4 5 5 5 6 6 6 6 6 7 7 7 7 7 7 7 8 11 13 14 15 16 16 16 17 18 19 20 20 21
10 12 11 11 12 12 11 11 11 11 12 11 9 8 7 7 8 8 7 7 8 7 7 7 7 7 7 8 8 8 8 8 8 8 8 7 7 7 7 7 6 6 6 7 7 6 5 5 5 4 5 4 4 5 4 4 5 6 5 6 6 7 7 6 7 7 8 7 7 7 7 7 7 9 13 14 15 16 16 17 18 19 19 20 20
10 9 11 12 10 8 9 9 11 12 12 10 9 9 9 8 8 7 7 8 7 7 7 7 7 7 7 8 8 9 8 8 8 8 8 8 8 8 7 7 6 6 6 6 6 6 6 5 6 5 6 6 6 6 5 6 6 5 5 6 5 7 7 7 7 8 7 7 7 7 7 6 6 6 6 10 13 13 16 17 18 18 19 19 20
9 9 13 14 12 10 9 9 11 12 11 12 11 10 9 8 8 8 8 8 7 7 7 7 7 7 7 8 9 9 9 8 9 8 8 8 8 7 7 7 6 7 7 7 7 6 6 7 6 6 6 6 6 5 6 7 6 7 7 6 7 6 6 7 7 7 7 8 7 7 7 7 7 6 6 6 8 12 14 15 16 17 18 18 19
12 12 12 12 13 11 11 11 11 12 12 12 11 10 10 9 8 8 8 8 8 8 8 8 8 8 8 8 9 10 10 10 9 9 8 8 8 8 8 7 7 7 7 6 6 7 6 6 6 7 6 7 6 7 6 7 6 8 7 7 7 6 7 7 8 8 8 7 7 7 7 7 7 7 7 7 6 7 11 12 14 16 16 17 18
11 12 12 11 13 14 12 13 14 15 13 12 11 10 9 9 9 9 9 9 9 9 8 8 8 8 8 8 9 10 10 10 10 9 9 8 8 8 7 8 7 7 7 7 7 7 7 7 7 7 8 7 7 7 5 6 7 8 7 7 7 7 7 8 8 8 6 7 8 7 7 8 8 8 7 7 6 6 8 12 12 14 15 15 16
10 10 11 13 14 13 13 13 12 13 12 13 13 11 10 10 9 9 9 10 10 9 8 8 9 8 8 9 9 9 9 10 10 10 9 9 9 9 8 8 8 8 7 7 7 6 7 7 7 6 7 7 6 6 7 6 6 6 7 7 7 7 8 8 8 8 7 9 8 9 9 7 6 6 6 6 6 6 6 8 12 13 13 13 14
9 10 9 9 9 11 11 13 13 13 12 12 11 11 11 10 9 10 10 11 9 9 9 9 9 9 10 10 10 10 10 11 11 10 10 9 8 8 8 8 7 7 7 7 7 7 7 7 7 6 5 7 8 7 7 6 6 6 7 8 6 8 8 7 8 8 8 9 10 9 6 7 6 5 6 6 6 6 7 6 5 6 7 12 13
8 9 10 9 11 11 11 11 12 12 11 10 10 9 9 9 10 9 10 10 10 9 10 10 9 10 10 10 10 9 9 9 9 9 9 9 8 8 8 7 8 7 8 8 8 7 8 8 8 8 7 6 6 6 4 4 4 6 8 8 8 9 10 9 9 9 9 8 8 7 7 6 6 5 6 7 6 6 6 5 5 6 6 8 12
9 10 11 13 13 14 12 14 11 11 11 11 11 11 11 10 10 12 13 11 10 9 9 9 9 10 10 10 10 9 9 10 10 10 10 9 9 7 7 7 7 8 8 10 8 8 9 9 8 6 8 7 6 4 4 3 4 7 5 8 8 7 10 10 10 8 8 7 7 7 6 5 5 6 6 6 5 5 5 5 5 5 6 6 7
13 13 15 17 14 11 13 13 10 12 13 14 12 12 12 12 12 12 9 9 9 10 10 9 10 9 10 10 10 10 11 10 10 10 10 10 9 8 8 8 8 8 8 8 7 7 7 6 5 4 4 7 6 5 5 5 2 4 7 7 6 6 8 5 7 6 6 7 7 6 4 5 6 6 5 4 5 5 5 5 5 5 6 6 6
14 14 16 12 11 12 13 11 12 13 14 14 13 14 13 12 11 9 10 8 8 8 8 8 7 9 10 10 10 10 11 10 11 11 10 10 10 9 9 8 8 8 8 8 7 7 7 8 8 8 4 3 5 2 6 8 5 2 1 4 7 9 5 2 2 3 6 7 4 4 4 4 7 5 2 3 5 5 4 4 5 5 5 5 6
12 12 13 14 12 13 13 13 14 14 13 14 16 14 11 10 9 8 7 8 7 6 8 8 8 9 11 10 10 10 11 11 11 10 10 11 11 10 9 8 9 8 9 9 8 9 7 7 7 7 6 5 3 5 6 8 6 3 5 3 0 1 9 3 4 7 4 2 1 4 3 4 4 2 1 4 5 5 5 4 5 5 5 6 6
13 14 14 14 12 17 17 17 15 14 13 13 14 10 8 7 8 4 3 4 4 6 7 10 11 11 10 11 13 11 11 11 10 10 10 11 10 10 10 9 9 8 8 9 9 9 8 7 9 8 9 8 7 4 4 6 8 7 6 2 2 1 5 5 9 6 2 1 1 4 3 3 3 2 2 4 4 4 4 3 4 4 5 6 6
13 14 13 14 15 15 14 14 13 12 13 14 12 10 10 11 10 10 10 11 11 11 13 16 14 14 16 11 7 11 11 10 10 10 10 9 10 10 10 9 9 8 9 9 8 7 8 9 9 9 9 8 8 7 4 4 7 8 8 7 6 5 1 2 6 7 4 5 7 1 1 1 2 2 2 4 4 4 3 4 4 5 5 6 6
14 12 11 12 14 14 12 14 13 13 13 11 11 10 11 11 14 15 14 13 14 13 14 11 8 8 6 8 9 8 9 10 10 10 10 9 9 9 10 10 9 9 8 8 9 9 8 9 7 9 9 8 7 9 10 5 3 5 6 7 7 6 3 3 6 3 12 3 3 1 2 1 4 4 3 4 4 4 4 4 4 5 5 6 6
14 11 11 12 14 15 13 13 12 12 11 10 11 12 12 12 13 13 12 13 14 16 12 8 5 4 7 8 6 7 7 8 9 9 9 9 9 10 10 10 10 9 8 9 10 8 7 7 8 9 8 8 10 11 8 6 8 5 7 8 7 7 4 4 5 8 8 13 11 3 3 4 2 2 3 4 5 6 5 5 5 5 6 6 6
11 12 12 11 13 13 13 11 11 10 9 10 11 12 13 13 13 12 11 11 13 13 6 5 6 6 6 5 7 7 6 7 8 9 9 9 9 10 9 9 10 10 9 9 9 9 10 9 8 9 10 9 9 9 7 8 8 8 5 5 5 7 5 6 5 5 7 7 16 10 5 1 1 3 5 6 7 6 6 6 6 6 6 6 6
13 13 10 11 12 10 9 11 12 11 10 10 11 13 14 12 11 12 14 13 11 10 6 6 6 6 8 8 7 7 7 7 8 8 9 9 9 9 9 10 10 9 8 9 9 9 9 9 10 10 9 10 8 9 10 8 7 6 8 5 6 3 4 4 6 6 6 9 12 14 10 7 9 6 3 4 6 6 6 5 5 5 6 6 6
6 8 10 11 11 10 12 13 14 11 10 12 12 14 14 14 14 15 16 16 14 12 9 8 7 6 8 9 8 8 6 7 7 7 9 9 10 10 10 10 9 8 9 9 10 9 9 9 8 8 9 11 9 9 8 8 7 8 8 8 8 8 8 8 7 6 7 6 6 9 12 7 6 10 4 5 5 6 6 5 5 6 6 6 6
Wind_Direction
195 164 162 175 179 172 163 162 160 156 151 150 147 144 140 138 138 136 132 136 123 126 132 133 133 138 140 136 136 133 129 126 127 127 125 123 119 118 118 109 103 105 104 106 101 98 95 95 104 102 102 104 101 99 93 88 89 87 93 93 83 80 93 96 96 91 91 95 89 86 86 87 88 87 87 86 84 81 73 74 59 44 42 84 91
172 164 164 175 172 168 165 162 162 158 151 151 148 145 141 141 140 138 136 138 134 131 128 129 129 132 134 132 130 125 122 120 122 121 120 122 120 115 115 113 114 108 99 102 105 101 98 99 101 102 98 89 89 90 93 87 81 85 80 80 84 84 81 72 57 65 97 96 92 89 90 92 93 94 93 91 89 86 81 80 74 50 60 87 72
144 154 161 172 167 165 167 164 165 153 153 152 149 147 143 143 143 140 137 143 139 134 127 125 130 133 133 131 128 124 120 118 115 114 116 115 117 117 117 124 115 103 93 87 97 104 104 99 97 98 99 100 93 90 91 90 87 83 80 84 65 60 65 69 69 67 69 74 81 83 86 93 95 97 98 98 97 94 92 88 82 74 77 83 60
147 154 158 168 163 164 165 163 159 155 155 152 150 147 144 145 146 142 139 144 144 142 136 130 131 131 130 129 125 122 121 118 118 119 122 122 123 126 127 117 114 109 105 100 95 101 96 97 93 91 93 93 92 92 90 89 89 83 77 71 70 71 74 75 76 74 74 73 71 70 58 60 87 97 101 102 102 102 103 97 94 92 92 96 89
147 151 156 162 161 162 164 162 160 158 156 153 150 147 146 148 147 144 143 142 147 145 148 134 133 135 137 136 133 134 135 125 123 121 120 123 123 122 124 121 115 112 100 98 105 108 109 105 103 101 97 98 100 101 96 95 94 89 80 73 73 89 93 90 88 85 81 80 76 80 84 84 82 94 94 94 91 90 91 92 92 91 94 98 99
147 153 155 155 156 163 165 164 161 159 156 154 151 149 148 149 149 148 147 146 145 150 153 142 141 143 139 132 136 139 139 124 123 126 127 130 123 125 127 132 124 118 118 112 107 116 129 112 112 109 103 107 109 106 106 103 98 93 86 88 98 107 105 100 93 90 82 80 69 59 64 73 90 107 108 103 100 103 104 104 103 104 101 96 96
144 150 155 152 153 161 166 163 160 161 156 155 152 151 150 151 151 151 151 149 147 149 156 147 149 138 143 136 128 119 135 130 124 131 127 119 131 123 134 140 139 135 134 127 129 142 142 118 117 116 111 113 114 112 108 103 93 88 92 107 118 120 115 106 100 91 85 76 73 57 55 66 66 66 116 114 111 106 103 101 99 94 93 94 89
143 149 152 150 153 161 165 160 162 160 158 156 154 154 153 151 152 155 153 151 149 148 157 155 164 150 151 151 150 130 117 150 160 147 122 138 130 138 150 152 152 155 153 143 140 149 151 135 123 122 118 119 118 112 108 94 85 79 86 109 125 128 122 115 104 95 89 84 71 64 59 65 82 110 114 117 115 114 108 105 102 99 96 96 89
145 149 147 147 154 159 160 162 166 161 161 157 156 157 155 151 154 156 156 152 152 152 156 157 144 138 151 152 178 144 146 159 139 127 121 124 136 130 124 141 174 167 171 145 149 150 154 151 144 127 121 123 119 113 101 88 82 76 83 96 125 133 127 120 109 96 79 72 60 71 72 81 93 29 108 108 108 108 105 93 104 109 108 107 105
145 145 145 147 156 159 158 163 164 162 161 161 157 159 157 153 155 158 158 155 154 157 161 157 150 148 150 161 177 149 171 162 156 137 149 154 146 129 130 148 139 136 154 154 147 153 156 152 155 148 126 125 122 111 93 86 81 77 79 89 104 119 118 110 103 94 86 78 81 83 130 94 58 272 109 98 103 105 97 84 77 90 123 124 129
145 146 146 146 157 159 159 163 165 164 162 163 160 160 156 155 156 158 159 160 158 159 166 159 157 156 157 159 157 163 165 154 173 153 150 146 135 140 141 158 149 153 156 151 145 161 158 152 153 161 146 125 116 100 89 84 80 76 75 79 82 91 95 98 94 81 72 70 62 9 49 76 51 42 110 114 111 115 117 122 125 128 126 130 124
148 147 146 150 157 160 159 162 165 166 164 163 162 160 155 156 157 158 160 162 163 163 168 165 159 160 156 163 167 158 159 176 170 161 148 139 151 143 151 160 152 153 153 158 159 162 153 155 154 166 163 126 112 97 90 84 78 76 73 72 75 76 82 89 95 94 86 87 87 61 52 52 33 268 123 123 126 133 144 145 147 137 129 123 125
150 150 149 150 156 162 160 161 166 166 167 164 162 161 157 157 158 160 160 162 164 167 168 168 167 166 160 169 168 161 161 170 181 162 155 150 162 147 159 157 156 158 159 154 161 159 160 157 161 165 169 149 123 109 94 85 80 76 72 67 67 74 78 80 83 98 97 79 55 30 60 24 335 280 140 149 149 151 154 159 152 146 139 136 129
149 153 153 154 157 162 161 162 164 167 166 166 163 163 159 158 159 160 159 161 163 168 175 173 171 167 171 170 158 163 163 164 177 166 161 163 158 156 155 161 160 162 163 158 155 173 164 163 165 167 175 166 148 125 104 94 84 79 75 68 59 55 61 66 60 54 69 59 24 354 336 334 267 283 172 170 172 171 160 148 159 157 145 142 149
152 153 154 155 156 160 161 165 162 164 167 168 163 161 161 160 159 161 162 164 167 169 173 178 177 171 181 167 160 164 164 171 181 162 161 166 167 162 159 170 161 160 163 165 170 164 187 176 168 168 181 178 162 142 121 107 97 86 83 80 71 57 56 60 59 45 37 25 349 332 309 303 274 228 201 196 220 186 201 182 172 173 173 165 165
150 151 152 157 155 157 159 165 164 164 166 167 160 161 163 162 162 164 166 168 169 172 172 183 191 173 191 165 159 171 174 171 193 148 163 183 167 169 166 166 180 172 162 174 169 167 187 179 171 174 179 190 185 172 144 128 113 99 86 90 96 88 72 65 52 45 26 7 343 332 314 296 297 266 221 247 224 222 225 220 197 208 213 206 197
149 151 155 158 156 160 161 164 165 165 162 160 158 162 165 162 163 167 170 167 167 166 172 187 188 181 198 158 156 185 172 172 169 107 100 163 158 152 161 174 177 168 171 179 183 171 189 181 182 188 194 206 206 201 179 173 115 114 102 97 110 118 115 91 57 24 7 1 2 345 314 307 292 293 258 245 245 242 238 249 242 223 229 230 233
153 157 161 159 163 163 163 161 160 161 159 157 158 162 163 162 162 167 165 160 163 163 168 196 173 187 199 149 150 178 180 152 147 116 101 105 152 142 70 235 186 179 177 179 189 187 194 197 205 203 205 219 221 230 233 250 222 132 125 122 120 123 132 121 117 322 343 345 2 314 322 297 291 281 275 249 251 246 249 246 253 259 246 245 240
158 164 160 162 170 165 164 159 161 158 158 156 160 165 164 167 165 164 160 160 159 161 165 192 180 187 171 138 166 165 174 155 154 142 119 127 158 173 154 337 226 194 185 187 191 194 197 204 206 215 214 216 231 241 246 251 265 177 139 158 142 140 121 114 126 132 266 324 316 319 307 302 293 279 266 264 261 259 257 254 252 249 255 259 256
163 166 167 170 169 168 163 161 162 160 160 158 163 164 168 164 163 160 157 160 158 157 163 180 174 169 156 125 172 166 147 158 158 158 158 157 156 159 201 209 259 201 212 201 199 205 203 208 210 210 214 220 231 241 247 249 256 194 216 229 256 12 25 52 40 1 206 269 273 288 295 301 293 278 266 263 262 260 261 262 262 265 261 256 257
167 174 174 173 171 169 165 161 165 160 160 160 161 163 167 161 160 160 158 161 159 159 162 175 167 173 157 145 143 162 148 153 165 168 173 171 163 161 209 227 229 247 220 216 212 209 209 223 226 222 212 225 224 231 235 243 239 220 227 238 253 9 13 4 354 333 314 285 288 286 283 288 292 287 278 274 271 267 263 263 262 263 268 268 263
170 171 180 176 172 173 169 165 163 161 161 161 162 162 164 161 160 163 161 166 162 161 165 167 168 165 174 162 155 155 150 159 169 174 179 192 177 173 189 207 222 229 231 217 236 235 223 224 227 236 229 223 217 209 221 229 229 223 228 238 283 8 330 320 328 324 307 302 290 274 280 283 283 282 277 272 270 272 271 266 264 264 264 268 272
177 176 181 181 176 172 173 170 166 163 162 163 164 164 163 162 164 165 166 166 169 164 166 165 166 165 182 180 167 165 161 166 172 175 175 191 191 191 195 200 210 224 231 235 261 236 220 232 239 247 256 259 217 162 210 238 299 293 302 320 342 283 292 303 301 306 302 297 300 294 291 286 285 284 281 276 272 272 273 272 268 264 266 269 270
177 179 175 179 178 178 175 173 171 166 164 165 165 166 167 165 166 168 166 168 172 172 170 169 169 170 172 179 175 173 170 174 184 182 181 188 204 206 206 207 212 219 229 239 254 257 210 202 226 248 250 248 256 235 208 221 283 297 285 266 261 250 271 278 283 283 282 287 290 298 299 297 292 287 284 277 272 272 275 277 273 268 268 268 271
174 165 178 187 183 181 175 176 174 170 170 169 171 174 173 170 171 172 171 173 176 175 175 174 172 173 172 173 175 173 177 179 188 194 191 190 198 211 219 219 218 226 233 234 243 257 288 241 250 266 260 258 256 254 242 250 242 249 258 261 256 235 231 265 277 282 284 285 283 292 294 293 293 290 285 279 272 268 269 273 277 275 271 270 271
168 185 188 186 188 185 179 175 176 176 177 176 178 176 175 183 182 178 174 176 168 174 178 177 175 175 173 173 169 174 180 183 189 196 201 191 201 210 214 212 217 226 231 228 233 229 244 221 225 243 257 237 233 236 227 231 245 241 244 252 253 261 257 254 255 269 267 277 281 285 288 289 289 287 284 282 277 270 269 272 276 276 276 277 278
185 193 183 189 186 187 184 178 179 175 182 177 177 177 187 189 185 181 179 176 167 169 181 186 184 177 175 174 172 180 181 188 193 197 204 192 204 204 209 202 210 215 214 205 228 226 222 222 218 232 242 246 253 246 230 233 231 245 247 248 253 258 256 260 255 252 261 259 269 271 278 282 284 285 285 282 281 275 267 267 270 275 278 278 276
184 187 188 187 188 189 186 182 184 180 180 178 182 185 189 189 189 182 190 181 172 171 179 187 186 187 183 182 183 181 182 189 197 197 205 190 208 202 200 205 207 212 206 197 213 222 222 225 227 242 245 247 248 249 239 232 236 232 250 249 249 252 260 260 259 259 258 250 257 256 262 271 275 278 280 278 278 277 272 268 269 271 273 275 277
185 188 190 190 192 187 185 188 186 185 182 180 187 190 188 190 189 191 193 183 190 189 190 188 193 191 191 188 185 188 187 189 197 201 186 203 202 200 200 208 202 210 198 213 200 216 221 218 225 231 231 242 247 253 245 247 239 239 241 254 250 252 256 257 258 260 258 257 254 252 252 262 264 267 270 270 271 273 275 274 274 274 276 278 280
191 185 182 193 190 187 187 189 188 188 185 185 192 192 189 192 193 194 195 188 196 195 191 194 195 194 195 195 194 198 197 198 201 190 189 206 202 202 202 205 202 199 198 213 200 205 217 219 226 229 231 236 240 242 237 248 245 241 238 251 252 251 250 252 253 253 255 254 254 255 248 250 256 259 261 260 261 262 266 270 273 275 277 278 279
181 182 186 187 185 187 192 189 189 188 187 192 193 195 190 196 192 192 196 197 194 192 196 197 197 198 197 198 200 202 203 203 205 200 199 202 203 204 209 199 203 198 196 213 197 206 215 220 219 222 224 230 235 236 234 250 255 254 247 246 252 252 252 251 254 253 253 253 252 251 250 243 244 250 252 255 257 258 261 265 269 273 276 277 278
183 188 187 176 176 191 190 190 189 189 192 195 194 195 195 195 193 191 197 196 194 197 197 199 201 201 197 198 205 202 203 207 206 207 207 209 211 209 209 200 207 196 194 202 204 204 211 222 224 227 234 237 251 249 237 244 253 250 249 249 252 250 251 248 250 250 250 250 249 252 251 251 246 244 246 251 255 256 259 261 265 268 271 273 276
191 190 182 174 184 185 188 191 189 190 194 196 196 198 195 194 197 200 195 191 197 199 202 201 201 202 201 200 202 203 202 206 206 207 207 213 215 214 211 207 204 196 196 202 206 206 210 221 233 226 236 240 249 256 248 241 250 251 245 251 251 255 252 251 250 252 250 249 248 248 250 250 251 250 247 248 250 253 256 259 263 266 269 272 274
187 187 179 186 187 180 185 185 191 193 194 197 197 199 199 196 199 202 198 195 198 199 204 205 205 206 203 202 204 205 204 204 207 207 206 211 217 219 215 210 201 197 199 202 207 203 208 210 222 221 230 230 237 245 252 254 248 253 253 249 246 247 249 253 251 251 255 253 250 251 252 251 250 248 245 246 246 247 253 257 261 263 266 269 272
184 187 188 191 186 182 180 191 190 195 191 198 198 200 201 202 200 202 201 201 200 202 202 204 206 208 206 209 206 206 209 209 205 207 207 208 214 217 216 213 196 198 203 203 203 205 205 211 206 221 227 231 235 237 236 248 253 252 249 247 248 248 247 249 254 256 250 253 252 254 253 254 252 250 248 247 244 244 245 250 254 259 262 266 269
190 187 191 188 188 188 184 194 187 194 196 199 199 198 199 202 203 203 205 202 205 206 205 206 206 205 207 209 206 208 208 211 210 206 212 208 212 216 216 207 200 198 205 203 201 208 203 211 209 210 226 231 227 237 226 244 245 253 249 248 250 251 253 254 254 253 250 252 249 249 246 247 247 248 248 248 248 242 240 242 248 255 259 262 263
194 189 189 185 189 191 188 193 193 196 198 199 200 202 201 203 204 203 207 205 209 211 209 206 207 208 207 210 206 206 207 208 209 208 211 212 212 216 213 206 198 200 200 200 203 203 203 208 210 207 214 232 223 238 236 236 246 249 253 253 252 253 255 252 253 251 255 248 252 247 246 243 241 242 241 243 246 249 246 246 249 253 257 258 259
206 199 194 189 190 188 191 195 198 195 197 198 201 203 206 206 208 209 206 209 210 209 210 206 211 211 209 213 206 205 205 206 206 206 211 212 212 211 209 201 195 200 203 200 208 199 206 205 219 206 208 221 230 229 238 237 243 255 257 253 255 247 251 253 251 254 251 258 254 251 246 247 242 238 238 240 240 243 243 244 247 251 252 252 252
204 202 199 199 196 194 192 195 197 196 197 196 194 198 201 203 204 206 206 210 210 210 206 211 213 212 213 212 207 207 206 206 206 205 209 209 210 210 207 199 194 199 204 208 209 202 203 207 217 216 208 217 224 225 233 238 249 254 259 257 254 252 252 249 251 250 246 247 251 254 256 252 244 238 239 235 239 236 241 240 237 246 253 252 253
204 199 203 201 203 198 197 197 199 195 194 197 195 198 199 201 202 204 210 211 210 208 208 214 212 217 216 211 209 209 205 205 206 206 209 210 210 210 207 194 196 196 204 212 214 205 205 206 216 214 220 227 227 237 230 240 263 264 269 272 254 258 255 248 248 243 245 247 251 252 252 250 239 241 236 238 237 238 240 240 233 239 244 252 251
207 202 203 207 204 201 195 202 195 192 193 195 198 198 201 203 205 208 211 209 211 211 214 215 215 218 216 213 209 209 207 203 205 204 210 211 213 209 204 202 197 200 208 216 211 210 206 206 211 204 215 227 236 209 224 193 272 285 254 263 270 241 249 243 244 247 244 247 243 246 249 249 245 242 235 235 239 244 241 239 240 237 241 243 254
211 205 207 209 205 202 205 203 188 197 200 198 197 201 204 206 202 209 208 211 209 209 218 216 218 221 218 217 214 210 209 207 203 206 211 210 212 210 206 206 196 206 214 216 213 209 203 204 194 215 205 216 236 179 192 134 234 252 308 312 287 263 244 247 252 256 253 248 243 242 245 237 252 241 236 218 242 244 243 240 238 239 242 243 246
211 210 215 207 201 205 212 202 202 200 203 199 196 206 205 205 204 207 202 213 217 220 225 225 219 221 219 218 217 215 211 211 206 204 210 211 213 212 213 206 200 201 208 215 209 211 201 202 194 206 208 223 232 200 169 185 226 167 182 338 319 345 334 340 343 278 247 241 234 235 226 237 244 250 213 213 239 244 244 236 239 241 245 245 247
210 214 214 208 205 208 208 205 209 207 204 202 204 205 198 201 207 206 207 209 212 210 221 222 221 217 221 214 216 211 210 213 208 203 208 211 210 214 214 208 206 201 205 210 208 214 201 199 196 208 199 227 200 234 187 189 191 127 296 224 264 75 318 324 306 286 257 296 214 230 217 228 250 280 174 223 239 237 244 229 237 240 245 247 248
212 214 209 206 208 210 207 205 209 211 210 207 206 195 181 186 194 179 169 200 210 206 213 227 219 219 223 218 217 208 213 214 208 206 204 210 210 212 213 212 207 202 203 212 212 211 205 197 196 201 199 212 236 215 219 192 202 197 178 102 325 340 231 278 331 298 0 86 259 221 228 218 258 262 226 248 248 244 239 240 241 242 249 248 250
217 218 212 211 211 215 210 206 209 211 213 211 201 187 192 189 179 190 195 205 213 208 215 219 211 209 216 218 212 212 214 215 212 211 206 204 209 209 212 212 209 205 203 211 214 205 202 200 201 202 207 204 221 233 222 218 213 209 215 213 198 220 277 261 13 296 307 253 265 342 235 214 218 251 252 268 275 272 225 244 230 243 242 244 246
224 218 215 215 217 222 215 209 208 210 210 205 189 190 195 196 197 202 205 207 213 221 224 226 219 224 221 214 217 211 213 214 215 212 214 209 208 208 209 212 212 211 204 204 211 211 208 206 192 198 205 194 196 230 230 196 206 243 233 235 239 246 224 268 259 319 306 347 75 126 314 284 247 233 253 259 266 263 255 228 234 237 243 242 246
220 218 222 215 214 218 215 213 213 212 206 195 189 193 199 200 203 208 210 212 216 228 223 222 210 197 202 215 209 212 207 210 212 211 212 210 209 212 209 210 213 213 203 208 212 210 208 207 195 198 196 195 197 215 222 187 195 212 199 223 234 244 237 222 221 239 269 300 284 240 230 248 282 297 242 259 257 252 257 245 244 244 244 248 247
225 219 220 221 222 216 214 214 217 217 210 191 191 195 203 203 205 208 214 222 226 235 213 175 193 187 204 199 201 206 198 200 203 206 208 210 208 211 208 212 212 213 205 213 213 205 206 201 194 194 198 203 203 210 208 212 197 214 152 221 218 231 230 229 233 202 238 267 284 286 286 338 310 247 238 229 242 243 235 239 234 240 247 254 252
219 215 216 218 221 216 211 211 216 210 206 197 193 198 202 202 207 210 216 223 224 234 213 202 196 183 208 206 200 200 199 198 200 202 204 207 208 206 210 214 215 212 206 214 211 208 208 207 204 200 198 205 204 201 210 212 204 202 193 177 190 199 215 233 219 215 224 228 261 292 297 304 302 293 255 244 252 240 235 229 235 239 244 249 254
227 219 217 220 219 210 211 211 217 213 201 200 196 202 201 201 208 210 214 223 223 224 218 218 205 192 209 210 202 205 191 202 193 203 206 203 206 205 208 214 212 209 209 211 213 209 208 206 204 199 202 205 203 203 211 214 204 207 202 196 207 195 202 209 208 190 208 229 250 269 287 273 270 299 270 211 231 251 230 211 225 233 232 240 248